Satellite-Ground Cal/Val Site Overpasses Predictions

Prediction of Satellite NPP Overpassing Cal/Val Site: Antarctic Dome C

Ground Cal/Val Site Location: Latitude: -75.10, Longitude: 123.35; Satellite-Ground Site NADIR distance within 100 km.

Table of predicted overpasses for the next 14.0 days since TLE Epoch: 9/9/2016
Interval Starting Time Ending Time Minimum Distance Time Minimum Distance (km)
1 09/10/2016 07:19:18 09/10/2016 07:19:36 09/10/2016 07:19:27 76.49
2 09/12/2016 15:01:29 09/12/2016 15:01:53 09/12/2016 15:01:41 55.15
3 09/13/2016 14:42:39 09/13/2016 14:43:04 09/13/2016 14:42:51 53.95
4 09/14/2016 07:44:19 09/14/2016 07:44:40 09/14/2016 07:44:30 68.72
5 09/15/2016 07:25:26 09/15/2016 07:25:53 09/15/2016 07:25:39 39.46
6 09/17/2016 15:07:49 09/17/2016 15:08:00 09/17/2016 15:07:55 92.56
7 09/18/2016 14:48:50 09/18/2016 14:49:19 09/18/2016 14:49:04 18.74
8 09/20/2016 07:31:38 09/20/2016 07:32:07 09/20/2016 07:31:53 4.39


NCC Satellite Cal/Val Overpasses Prediction Service
